SCP
1 0 0 0 0 0 0 0 0 0 0 0 0 0 0 0 0 0 0 0 0 0 0 0 0 0 0 0 0 0 0 0 0 0 0 0 0 0
0 0 0 0 0 0 0 0 0 0 0 0 0 0 0 0 0 0 0 0 0 0 0 0 0 0 0 0 0 0 0 0 0 0 0 0 0 0
0 0 0 0 0 0 0 0 0 0 0 0 0 0 0 0 0 0 0 0 0 0 0 0 0 0 0 0 0 0 0 0 0 0 0 0 0 0
0 0 0 0 0 0 0 0 0 0 0 0 0 0 0 0 0 0 0 0 0 0 0 0 0 0 0 0 0 0 0 0 0 0 0 0 0 0
0 0 0 0 0 0 0 0 0 0 0 0 0 0 0 0 0 0 0 0 0 0 0 0 0 0 0 0 0 0 0 0 0 0 0 0 0 0
0 0 0 0 0 0 0 0 0 0 0 0 0 0 0 0 0 0 0 0 0 0 0 0 0 0 0 0 0 0 0 0 0 0 0 0 0 0
0 0 0 0 0 0 0 0 0 0 0 0 0 0 0 0 0 0 0 0 0 0 0 0 0 0 0 0 0 0 0 0 0 0 0 0 0 0
0 0 0 0 0 0 0 0 0 0 0 0 0 0 0 0 0 0 0 0 0 0 0 0 0 0 0 0 0 0 0 0 0 0 0 0 0 0
0 0 0 0 0 0 0 0 0 0 0 0 0 0 0 0 0 0 0 0 0 0 0 0 0 0 0 0 0 0 0 0 0 0 0 0 0 0
0 0 0 0 0 0 0 0 0 0 0 0 0 0 0 0 0 0 0 0 0 0 0 0 0 0 0 0 0 0 0 0 0 0 0 0 0 0
0 0 0 0 0 0 0 0 0 0 0 0 0 0 0 0 0 0 0 0 0 0 0 0 0 0 0 0 0 0 0 0 0 0 0 0 0 0
0 0 0 0 0 0 0 0 0 0 0 0 0 0 0 0 0 0 0 0 0 0 0 0 0 0 0 0 0 0 0 0 0 0 0 0 0 0
0 0 0 0 0 0 0 0 0 0 0 0 0 0 0 0 0 0 0 0 0 0 0 0 0 0 0 0 0 0 0 0 0 0 0 0 0 0
0 0 0 0 0 0 0 0 0 0 0 0 0 0 0 0 0 0 0 0 0 0 0 0 0 0 0 0 0 0 0 0 0 0 0 0 0 0
0 0 0 0 0 0 0 0 0 0 0 0 0 0 0 0 0 0 0 0 0 0 0 0 0 0 0 0 0 0 0 0 0 0 0 0 0 0
0 0 0 0 0 0 0 0 0 0 0 0 0 0 0 0 0 0 0 0 0 0 0 0 0 0 0 0 0 0 0 0 0 0 0 0 0 0
0 0 0 0 0 0 0 0 0 0 0 0 0 0 0 0 0 0 0 0 0 0 0 0 0 0 0 0 0 0 0 0 0 0 0 0 0 0
0 0 0 0 0 0 0 0 0 0 0 0 0 0 0 0 0 0 0 0 0 0 0 0 0 0 0 0 0 0 0 0 0 0 0 0 0 0
0 0 0 0 0 0 0 0 0 0 0 0 0 0 0 0 0 0 0 0 0 0 0 0 0 0 0 0 0 -0 0 0 0 -0 -0 -0 0 -0
0 0 0 0 0 0 0 0 0 0 0 0 0 0 0 0 0 0 0 0 0 0 0 0 0 0 0 0 0 0 0 0 -0 0 0 0 0 0
0 0 0 0 0 0 0 0 0 0 0 0 0 0 0 0 0 0 0 0 0 0 0 0 0 0 0 0 0 0 0 0 -0 0 0 0 -0 -0
0 0 0 0 0 0 0 0 0 0 0 0 0 0 0 0 0 0 0 0 0 0 0 0 0 0 0 0 0 0 0 0 0 0 -0 0 0 -0
0 0 0 0 0 0 0 0 0 0 0 0 0 0 0 0 0 0 0 0 0 0 0 0 0 0 0 0 0 0 0 0 -0 0 0 0 -0 -0
Wind_Speed_500mb
71 80 81 72 88 83 88 87 66 51 61 66 62 64 57 51 45 39 37 36 38 41 41 43 47 52 52 54 52 47 42 35 30 29 35 33 32 31
78 78 78 76 88 87 86 81 64 44 49 57 62 64 57 52 42 34 35 35 36 41 46 49 53 57 57 55 50 44 38 34 29 29 31 36 36 36
79 82 80 64 77 91 82 78 75 51 61 43 51 61 54 44 37 34 36 38 43 46 50 50 50 49 45 39 35 33 31 31 25 25 29 35 40 40
87 85 77 78 89 82 84 92 81 66 51 48 53 54 50 41 37 36 37 38 39 43 41 40 40 39 35 33 29 27 28 27 26 24 26 31 35 40
98 81 82 84 92 93 94 76 84 73 74 65 63 56 47 38 35 35 35 33 34 35 37 37 37 33 30 27 23 22 24 24 24 22 29 30 33 37
100 89 97 89 88 84 74 77 88 80 68 64 61 53 43 38 31 27 25 28 29 31 29 30 27 27 23 22 22 24 23 23 26 25 22 27 29 32
98 109 110 95 84 70 85 85 85 79 69 58 54 45 40 33 26 28 24 25 24 24 18 18 20 18 21 19 19 18 20 22 25 23 24 24 24 20
103 112 115 106 94 79 75 84 83 76 71 60 53 44 39 32 26 21 19 15 7 22 24 16 21 17 17 23 21 13 14 17 23 24 22 22 17 18
109 118 116 105 99 83 78 71 70 65 56 58 49 40 34 27 24 22 21 16 14 15 24 18 17 16 19 24 26 23 18 19 20 18 20 20 20 20
106 119 114 112 97 92 85 80 74 64 55 49 40 32 24 20 19 21 23 23 23 21 21 16 15 17 21 25 35 35 32 29 22 19 18 17 21 19
93 105 104 109 98 96 97 91 77 64 50 38 29 22 18 17 16 19 15 14 17 19 17 18 14 23 25 21 19 34 42 39 35 26 23 19 19 21
70 77 80 96 94 96 94 87 74 60 48 38 28 17 11 18 22 25 20 18 18 15 16 12 15 15 14 14 11 28 31 40 43 36 29 24 22 22
65 71 72 81 75 66 68 64 58 50 39 26 21 19 22 21 18 19 20 17 17 19 18 16 12 11 17 29 25 30 22 25 26 30 32 28 23 21
73 69 72 60 61 50 48 42 40 34 28 22 15 12 11 9 8 12 15 17 21 24 22 21 18 14 22 32 37 27 26 22 20 19 22 28 27 21
62 64 49 48 36 44 32 28 28 24 19 17 15 12 11 11 9 8 9 17 20 20 16 18 19 17 21 30 38 32 28 19 21 12 16 21 23 26
43 45 40 40 37 41 39 32 26 22 18 13 13 10 8 6 5 6 8 12 11 10 9 12 14 17 22 25 30 29 24 18 19 22 26 28 28 27
45 50 41 40 39 37 30 24 19 13 11 11 9 5 5 4 3 5 6 8 8 9 10 11 14 20 25 29 28 24 21 22 21 23 31 27 30 30
31 35 33 30 29 24 19 14 10 8 8 8 7 5 4 3 3 6 8 9 12 12 11 11 14 17 17 21 22 20 21 21 27 25 21 26 25 22
30 27 22 19 17 14 9 5 3 2 4 3 4 6 5 3 7 6 7 8 9 11 12 13 12 14 15 19 10 16 22 24 26 17 24 24 22 20
31 25 20 17 12 9 5 3 3 4 4 4 6 5 7 6 9 10 9 10 10 10 13 12 13 14 14 17 22 18 24 26 23 32 24 17 23 26
36 30 24 16 8 6 6 5 6 6 9 11 10 11 12 10 11 11 11 16 16 13 13 14 14 21 20 19 21 28 24 24 25 34 19 17 19 13
33 30 22 19 16 14 11 9 11 12 11 11 11 12 15 14 11 12 12 12 13 17 17 18 16 16 17 21 18 22 23 29 35 27 26 9 5 10
38 33 26 20 20 16 14 15 17 16 14 14 15 15 13 11 14 13 12 14 17 17 16 19 17 15 18 18 17 17 20 25 30 24 20 14 12 8
Wind_Direction_500mb
259 258 257 256 245 236 224 229 225 215 219 223 230 235 233 236 245 257 266 272 279 285 286 289 294 298 300 303 302 302 299 296 286 278 268 261 250 248
257 257 252 249 243 234 219 221 214 238 239 232 226 235 230 236 245 253 268 279 284 286 289 290 294 294 296 297 299 294 291 286 279 275 265 257 254 250
252 249 243 239 235 220 222 216 219 230 234 230 226 226 226 230 244 259 271 280 286 289 290 293 295 296 298 299 293 290 288 286 279 274 265 257 250 247
248 247 240 229 225 220 217 218 207 195 225 229 225 220 218 226 244 261 273 280 284 289 292 297 295 298 299 298 295 290 290 285 278 278 277 267 257 247
245 242 233 219 219 219 223 221 206 204 207 219 219 212 218 227 243 260 271 281 289 292 294 294 297 300 300 299 292 290 292 287 284 287 282 278 263 248
245 248 229 228 217 211 218 223 214 212 214 212 213 210 215 224 235 246 265 279 283 291 296 298 297 299 304 296 281 282 282 286 291 291 287 277 270 255
240 243 226 229 220 227 225 222 211 208 210 206 203 204 209 219 229 249 262 276 286 284 292 298 289 290 297 293 288 279 275 278 280 285 291 281 280 255
232 239 232 224 224 224 219 214 207 203 203 204 205 203 208 218 234 246 256 265 259 292 300 302 289 273 285 292 291 288 288 285 283 275 282 291 255 241
233 233 231 227 216 212 200 197 206 204 211 209 205 202 208 222 237 248 253 261 261 267 300 295 280 276 279 275 267 268 275 288 294 286 275 283 290 269
232 230 235 222 206 191 179 188 188 187 190 192 197 203 208 225 240 249 254 271 283 289 282 286 275 287 291 279 263 256 252 266 280 287 283 287 286 285
219 228 219 213 192 182 179 177 179 180 181 184 190 209 217 219 239 255 266 267 275 270 261 272 281 295 301 287 264 255 253 255 264 270 278 279 288 292
192 190 193 189 175 182 179 179 175 176 179 178 185 191 235 253 253 261 262 254 258 272 244 229 269 306 321 287 289 294 281 264 257 259 265 274 276 282
155 166 168 165 164 172 171 171 175 170 172 176 191 224 241 253 263 260 255 242 242 238 243 251 261 278 277 294 303 303 292 286 267 259 264 267 273 277
132 124 138 147 149 159 152 163 160 160 164 173 192 195 181 182 211 244 252 254 247 239 238 256 262 273 285 295 303 301 302 292 282 276 266 261 259 264
95 110 112 127 132 134 136 142 137 149 150 153 136 154 176 195 232 245 246 259 269 261 255 250 250 265 280 292 302 307 312 303 288 274 286 279 264 251
76 94 101 107 111 110 113 115 115 110 117 128 139 167 198 221 230 220 237 255 277 281 254 244 253 268 281 288 290 289 288 285 283 292 291 280 265 258
77 84 93 98 101 101 97 98 92 99 112 112 107 130 148 163 198 260 256 259 260 267 266 266 269 283 286 283 278 274 277 274 282 303 295 292 258 253
78 82 83 87 87 86 87 100 117 119 106 105 108 147 177 219 259 282 271 264 260 268 282 286 292 299 297 291 273 269 283 296 305 300 306 300 273 259
71 65 71 79 82 85 105 130 107 143 86 106 184 218 234 288 276 269 274 267 278 285 278 281 286 288 289 296 288 286 318 309 337 307 322 287 284 259
44 45 48 50 47 40 16 319 300 289 276 271 257 255 249 241 256 264 270 276 282 279 287 279 269 272 282 291 292 278 328 338 335 334 310 256 273 268
23 19 16 11 2 358 334 326 318 300 286 278 270 265 261 255 259 273 277 272 274 273 283 274 265 266 273 280 290 309 330 343 342 333 316 278 274 266
7 5 357 347 336 309 286 300 310 297 281 280 279 277 276 260 257 261 265 274 276 272 275 281 277 275 262 262 280 310 324 339 339 327 319 253 274 286
357 352 346 328 312 307 303 274 250 258 272 271 269 275 275 266 240 240 258 265 271 271 284 286 276 266 258 264 278 298 317 334 325 311 297 229 262 249
Wind_Speed_850mb
71 80 81 72 88 83 88 87 66 51 61 66 62 64 57 51 45 39 37 36 38 41 41 43 47 52 52 54 52 47 42 35 30 29 35 33 32 31
78 78 78 76 88 87 86 81 64 44 49 57 62 64 57 52 42 34 35 35 36 41 46 49 53 57 57 55 50 44 38 34 29 29 31 36 36 36
79 82 80 64 77 91 82 78 75 51 61 43 51 61 54 44 37 34 36 38 43 46 50 50 50 49 45 39 35 33 31 31 25 25 29 35 40 40
87 85 77 78 89 82 84 92 81 66 51 48 53 54 50 41 37 36 37 38 39 43 41 40 40 39 35 33 29 27 28 27 26 24 26 31 35 40
98 81 82 84 92 93 94 76 84 73 74 65 63 56 47 38 35 35 35 33 34 35 37 37 37 33 30 27 23 22 24 24 24 22 29 30 33 37
100 89 97 89 88 84 74 77 88 80 68 64 61 53 43 38 31 27 25 28 29 31 29 30 27 27 23 22 22 24 23 23 26 25 22 27 29 32
98 109 110 95 84 70 85 85 85 79 69 58 54 45 40 33 26 28 24 25 24 24 18 18 20 18 21 19 19 18 20 22 25 23 24 24 24 20
103 112 115 106 94 79 75 84 83 76 71 60 53 44 39 32 26 21 19 15 7 22 24 16 21 17 17 23 21 13 14 17 23 24 22 22 17 18
109 118 116 105 99 83 78 71 70 65 56 58 49 40 34 27 24 22 21 16 14 15 24 18 17 16 19 24 26 23 18 19 20 18 20 20 20 20
106 119 114 112 97 92 85 80 74 64 55 49 40 32 24 20 19 21 23 23 23 21 21 16 15 17 21 25 35 35 32 29 22 19 18 17 21 19
93 105 104 109 98 96 97 91 77 64 50 38 29 22 18 17 16 19 15 14 17 19 17 18 14 23 25 21 19 34 42 39 35 26 23 19 19 21
70 77 80 96 94 96 94 87 74 60 48 38 28 17 11 18 22 25 20 18 18 15 16 12 15 15 14 14 11 28 31 40 43 36 29 24 22 22
65 71 72 81 75 66 68 64 58 50 39 26 21 19 22 21 18 19 20 17 17 19 18 16 12 11 17 29 25 30 22 25 26 30 32 28 23 21
73 69 72 60 61 50 48 42 40 34 28 22 15 12 11 9 8 12 15 17 21 24 22 21 18 14 22 32 37 27 26 22 20 19 22 28 27 21
62 64 49 48 36 44 32 28 28 24 19 17 15 12 11 11 9 8 9 17 20 20 16 18 19 17 21 30 38 32 28 19 21 12 16 21 23 26
43 45 40 40 37 41 39 32 26 22 18 13 13 10 8 6 5 6 8 12 11 10 9 12 14 17 22 25 30 29 24 18 19 22 26 28 28 27
45 50 41 40 39 37 30 24 19 13 11 11 9 5 5 4 3 5 6 8 8 9 10 11 14 20 25 29 28 24 21 22 21 23 31 27 30 30
31 35 33 30 29 24 19 14 10 8 8 8 7 5 4 3 3 6 8 9 12 12 11 11 14 17 17 21 22 20 21 21 27 25 21 26 25 22
30 27 22 19 17 14 9 5 3 2 4 3 4 6 5 3 7 6 7 8 9 11 12 13 12 14 15 19 10 16 22 24 26 17 24 24 22 20
31 25 20 17 12 9 5 3 3 4 4 4 6 5 7 6 9 10 9 10 10 10 13 12 13 14 14 17 22 18 24 26 23 32 24 17 23 26
36 30 24 16 8 6 6 5 6 6 9 11 10 11 12 10 11 11 11 16 16 13 13 14 14 21 20 19 21 28 24 24 25 34 19 17 19 13
33 30 22 19 16 14 11 9 11 12 11 11 11 12 15 14 11 12 12 12 13 17 17 18 16 16 17 21 18 22 23 29 35 27 26 9 5 10
38 33 26 20 20 16 14 15 17 16 14 14 15 15 13 11 14 13 12 14 17 17 16 19 17 15 18 18 17 17 20 25 30 24 20 14 12 8
Wind_Direction_850mb
259 258 257 256 245 236 224 229 225 215 219 223 230 235 233 236 245 257 266 272 279 285 286 289 294 298 300 303 302 302 299 296 286 278 268 261 250 248
257 257 252 249 243 234 219 221 214 238 239 232 226 235 230 236 245 253 268 279 284 286 289 290 294 294 296 297 299 294 291 286 279 275 265 257 254 250
252 249 243 239 235 220 222 216 219 230 234 230 226 226 226 230 244 259 271 280 286 289 290 293 295 296 298 299 293 290 288 286 279 274 265 257 250 247
248 247 240 229 225 220 217 218 207 195 225 229 225 220 218 226 244 261 273 280 284 289 292 297 295 298 299 298 295 290 290 285 278 278 277 267 257 247
245 242 233 219 219 219 223 221 206 204 207 219 219 212 218 227 243 260 271 281 289 292 294 294 297 300 300 299 292 290 292 287 284 287 282 278 263 248
245 248 229 228 217 211 218 223 214 212 214 212 213 210 215 224 235 246 265 279 283 291 296 298 297 299 304 296 281 282 282 286 291 291 287 277 270 255
240 243 226 229 220 227 225 222 211 208 210 206 203 204 209 219 229 249 262 276 286 284 292 298 289 290 297 293 288 279 275 278 280 285 291 281 280 255
232 239 232 224 224 224 219 214 207 203 203 204 205 203 208 218 234 246 256 265 259 292 300 302 289 273 285 292 291 288 288 285 283 275 282 291 255 241
233 233 231 227 216 212 200 197 206 204 211 209 205 202 208 222 237 248 253 261 261 267 300 295 280 276 279 275 267 268 275 288 294 286 275 283 290 269
232 230 235 222 206 191 179 188 188 187 190 192 197 203 208 225 240 249 254 271 283 289 282 286 275 287 291 279 263 256 252 266 280 287 283 287 286 285
219 228 219 213 192 182 179 177 179 180 181 184 190 209 217 219 239 255 266 267 275 270 261 272 281 295 301 287 264 255 253 255 264 270 278 279 288 292
192 190 193 189 175 182 179 179 175 176 179 178 185 191 235 253 253 261 262 254 258 272 244 229 269 306 321 287 289 294 281 264 257 259 265 274 276 282
155 166 168 165 164 172 171 171 175 170 172 176 191 224 241 253 263 260 255 242 242 238 243 251 261 278 277 294 303 303 292 286 267 259 264 267 273 277
132 124 138 147 149 159 152 163 160 160 164 173 192 195 181 182 211 244 252 254 247 239 238 256 262 273 285 295 303 301 302 292 282 276 266 261 259 264
95 110 112 127 132 134 136 142 137 149 150 153 136 154 176 195 232 245 246 259 269 261 255 250 250 265 280 292 302 307 312 303 288 274 286 279 264 251
76 94 101 107 111 110 113 115 115 110 117 128 139 167 198 221 230 220 237 255 277 281 254 244 253 268 281 288 290 289 288 285 283 292 291 280 265 258
77 84 93 98 101 101 97 98 92 99 112 112 107 130 148 163 198 260 256 259 260 267 266 266 269 283 286 283 278 274 277 274 282 303 295 292 258 253
78 82 83 87 87 86 87 100 117 119 106 105 108 147 177 219 259 282 271 264 260 268 282 286 292 299 297 291 273 269 283 296 305 300 306 300 273 259
71 65 71 79 82 85 105 130 107 143 86 106 184 218 234 288 276 269 274 267 278 285 278 281 286 288 289 296 288 286 318 309 337 307 322 287 284 259
44 45 48 50 47 40 16 319 300 289 276 271 257 255 249 241 256 264 270 276 282 279 287 279 269 272 282 291 292 278 328 338 335 334 310 256 273 268
23 19 16 11 2 358 334 326 318 300 286 278 270 265 261 255 259 273 277 272 274 273 283 274 265 266 273 280 290 309 330 343 342 333 316 278 274 266
7 5 357 347 336 309 286 300 310 297 281 280 279 277 276 260 257 261 265 274 276 272 275 281 277 275 262 262 280 310 324 339 339 327 319 253 274 286
357 352 346 328 312 307 303 274 250 258 272 271 269 275 275 266 240 240 258 265 271 271 284 286 276 266 258 264 278 298 317 334 325 311 297 229 262 249